This demonstration page uses our WeatherBlox Daily Observations layout. Learn more.

Left ArrowRight Arrow

41.86663, -103.66717

Hourly Observations for July 7, 2018

Temp ( °F °C ) Dew Point ( °F °C ) Humidity (%) Winds ( mph kmh ) Pressure ( in mb ) Visibility ( mi km ) Precip ( " mm )
12:53 am 00:53 Clear 70 21.1 66 18.9 87 87 ESE 13 20 30.08 1019 10 16.0934 N/A
1:53 am 01:53 Clear 68 20 66 18.9 93 93 E 10 17 30.06 1018 10 16.0934 N/A
2:53 am 02:53 Clear 68 20 65 18.3 90 90 ESE 9 15 30.04 1017 10 16.0934 N/A
3:53 am 03:53 Clear 68 20 64 17.8 87 87 E 10 17 30.03 1017 10 16.0934 N/A
4:53 am 04:53 Clear 67 19.4 63 17.2 87 87 ESE 10 17 30.04 1017 10 16.0934 N/A
5:53 am 05:53 Sunny 65 18.3 63 17.2 93 93 ENE 7 11 30.04 1017 10 16.0934 N/A
6:53 am 06:53 Sunny 69 20.6 64 17.8 84 84 E 7 11 30.04 1017 10 16.0934 N/A
7:53 am 07:53 Sunny 73 22.8 65 18.3 76 76 ESE 9 15 30.03 1017 10 16.0934 N/A
8:53 am 08:53 Sunny 77 25 66 18.9 69 69 ESE 10 17 30.03 1017 10 16.0934 N/A
9:53 am 09:53 Sunny 80 26.7 67 19.4 64 64 SE 10 17 30.01 1016 10 16.0934 N/A
10:53 am 10:53 Sunny 87 30.6 68 20 53 53 SE 10 17 29.99 1016 10 16.0934 N/A
11:53 am 11:53 Sunny 93 33.9 65 18.3 40 40 SSE 13 20 29.97 1015 10 16.0934 N/A
12:53 pm 12:53 Sunny 96 35.6 60 15.6 30 30 S 16 26 29.95 1014 10 16.0934 N/A
1:53 pm 13:53 Sunny 96 35.6 59 15 29 29 SSE 13 20 29.93 1014 10 16.0934 N/A
2:53 pm 14:53 Sunny 98 36.7 59 15 27 27 S 14 22 29.91 1013 10 16.0934 N/A
3:53 pm 15:53 Sunny 98 36.7 58 14.4 26 26 SE 14 22 29.9 1012 10 16.0934 N/A
4:53 pm 16:53 Sunny 98 36.7 58 14.4 26 26 SE 15 24 29.88 1012 10 16.0934 N/A
5:53 pm 17:53 Sunny 95 35 59 15 30 30 SSE 16 26 29.88 1012 10 16.0934 N/A
6:53 pm 18:53 Sunny 91 32.8 58 14.4 33 33 SE 13 20 29.88 1012 10 16.0934 N/A
7:53 pm 19:53 Sunny 82 27.8 63 17.2 53 53 ESE 8 13 29.9 1012 10 16.0934 N/A
8:53 pm 20:53 Clear 79 26.1 59 15 50 50 ESE 10 17 29.91 1013 10 16.0934 N/A
9:53 pm 21:53 Clear 76 24.4 60 15.6 58 58 ESE 9 15 29.95 1014 10 16.0934 N/A
10:53 pm 22:53 Clear 76 24.4 60 15.6 58 58 E 10 17 29.94 1014 10 16.0934 N/A
11:53 pm 23:53 Clear 76 24.4 61 16.1 60 60 ESE 6 9 29.93 1014 10 16.0934 N/A

Powered by AerisWeather